Flag for Italy Weather past 2 weeks in Naples, Italy

Now
63 °F

Broken clouds.


Feels Like: 63 °F
Forecast: 55 / 72 °F
Wind: 10 mph from South

Location: Naples / Capodichino

Current Time: Apr 18, 2015 at 1:55:13 PM

Latest Report: Apr 18, 2015 at 1:20 PM


Visibility: N/A

Pressure: 29.98 "Hg

Humidity: 83%

Dew point: 57 °F

Location of NaplesLocation

Historic Weather in Naples — Graph

°F

Naples temperature yesterday

Maximum temperature yesterday: 73 °F (at 4:50 PM)
Minimum temperature yesterday: 54 °F (at 12:50 AM)
Average temperature yesterday: 62 °F

Past Weeks' High & Low Weather Summary

 TemperatureHumidityPressure
High73 °F (Apr 17, 4:50 PM)100% (Apr 5, 6:20 AM)30.42 "Hg (Apr 5, 6:20 AM)
Low32 °F (Apr 3, 10:20 PM)30% (Apr 4, 12:50 AM)29.62 "Hg (Apr 5, 5:20 AM)
Average56 °F67%30.16 "Hg
* Reported Apr 3 12:50 PM — Apr 18 12:50 PM, Naples, Weather by CustomWeather, © 2015

Note: Actual official high and low records may vary slightly from our data, if they occured in-between our weather recording intervals... More about our weather records

Advertising

Naples weather history for previous 24 hours

 ConditionsComfort  
Time TempWeatherWind HumidityBarometerVisibility
12:50 PM
Sat, Apr 18
64 °FPartly sunny.12 mph78%29.98 "HgN/A
12:20 PM64 °FPartly sunny.10 mph78%29.98 "HgN/A
11:50 AM64 °FPartly sunny.10 mph78%29.98 "HgN/A
11:20 AM64 °FPartly sunny.9 mph78%30.01 "HgN/A
10:50 AM63 °FPartly sunny.12 mph77%29.98 "Hg5 mi
10:20 AM64 °FPartly sunny.8 mph78%29.98 "Hg5 mi
9:50 AM63 °FPartly sunny.7 mph77%29.98 "Hg5 mi
9:20 AM64 °FPartly sunny.6 mph78%29.98 "Hg5 mi
8:50 AM63 °FPartly sunny.7 mph83%29.98 "Hg4 mi
8:20 AM63 °FPartly sunny.6 mph83%29.98 "Hg4 mi
7:50 AM61 °FPartly sunny.5 mph88%29.98 "Hg4 mi
7:20 AM61 °FPartly sunny.3 mph88%29.98 "Hg4 mi
6:50 AM59 °FPassing clouds.2 mph88%29.98 "Hg4 mi
6:20 AM59 °FPassing clouds.5 mph94%29.98 "Hg4 mi
5:50 AM61 °FPassing clouds.5 mph88%29.98 "Hg4 mi
5:20 AM59 °FPassing clouds.5 mph94%29.98 "Hg4 mi
4:50 AM59 °FPassing clouds.2 mph94%29.98 "Hg4 mi
4:20 AM59 °FPassing clouds.2 mph94%29.98 "Hg4 mi
3:50 AM59 °FPassing clouds.3 mph94%29.98 "Hg4 mi
3:20 AM61 °FPassing clouds.5 mph88%29.98 "Hg4 mi
2:50 AM61 °FPassing clouds.6 mph94%29.98 "Hg4 mi
2:20 AM61 °FPassing clouds.6 mph94%30.01 "Hg4 mi
1:50 AM61 °FPassing clouds.7 mph94%30.01 "Hg4 mi
1:20 AM61 °FPassing clouds.5 mph94%30.01 "Hg4 mi
12:50 AM61 °FPassing clouds.7 mph94%30.01 "Hg4 mi
12:20 AM61 °FPassing clouds.6 mph94%30.01 "Hg4 mi
11:50 PM
Fri, Apr 17
61 °FPassing clouds.8 mph94%30.01 "Hg4 mi
11:20 PM61 °FPassing clouds.7 mph88%30.01 "Hg4 mi
10:50 PM63 °FPassing clouds.8 mph88%30.01 "Hg4 mi
10:20 PM61 °FPassing clouds.8 mph88%30.01 "Hg4 mi
9:50 PM61 °FPassing clouds.9 mph88%30.01 "Hg4 mi
9:20 PM61 °FPassing clouds.9 mph88%30.01 "Hg4 mi
8:50 PM61 °FPassing clouds.9 mph88%30.01 "Hg5 mi
8:20 PM63 °FScattered clouds.10 mph83%29.98 "HgN/A
7:50 PM63 °FPassing clouds.10 mph77%29.98 "HgN/A
7:20 PM64 °FPassing clouds.12 mph60%29.98 "HgN/A
6:50 PM66 °FPassing clouds.12 mph49%29.98 "HgN/A
6:20 PM68 °FPassing clouds.9 mph43%29.98 "HgN/A
5:50 PM70 °FPassing clouds.12 mph38%29.98 "HgN/A
5:20 PM72 °FPassing clouds.9 mph41%29.98 "HgN/A
4:50 PM73 °FPassing clouds.7 mph33%30.01 "HgN/A
4:20 PM72 °FMild.N/A36%30.01 "HgN/A
3:50 PM72 °FPassing clouds.7 mph33%30.01 "HgN/A
3:20 PM72 °FPassing clouds.9 mph36%30.04 "HgN/A
2:50 PM72 °FPassing clouds.9 mph33%30.04 "HgN/A
2:20 PM70 °FScattered clouds.10 mph33%30.04 "HgN/A
1:50 PM70 °FPartly sunny.8 mph38%30.07 "HgN/A
1:20 PM68 °FPartly sunny.8 mph38%30.07 "HgN/A
Weather by CustomWeather, © 2015

See weather overviewHow to use our weather pages